Simultaneous Nadir Overpasses (SNOs) Predictions

Prediction of SNOs between NOAA-19 and TERRA Satellite Orbit:

Table of predicted SNOs for the next 14.0 days since TLE Epoch: 11/15/2015
Index Date (NOAA-19) Time (NOAA-19) Lat,Lon (NOAA-19) SZA (NOAA-19 ) Date (TERRA) Time (TERRA) Lat,Lon (TERRA) SZA (TERRA ) Distance(km) Time Diff (sec)
1 11/16/2015 22:11:16 -72.79, 32.22 88.30 11/16/2015 22:11:49 -72.79, 32.28 88.28 2.18 33
2 11/16/2015 23:02:18 72.66,-160.27 91.61 11/16/2015 23:01:17 72.65,-160.35 91.58 2.66 61
3 11/19/2015 03:45:33 72.77, 128.73 92.23 11/19/2015 03:45:32 72.77, 128.80 92.23 2.26 1
4 11/19/2015 04:36:19 -72.14, -62.71 88.33 11/19/2015 04:35:10 -72.23, -64.57 88.35 63.89 69
5 11/21/2015 08:28:47 72.83, 57.83 92.78 11/21/2015 08:29:48 72.82, 57.84 92.78 1.09 61
6 11/21/2015 09:19:44 -72.73,-134.68 87.31 11/21/2015 09:19:18 -72.71,-134.75 87.34 2.87 26
7 11/23/2015 14:02:59 -72.81, 154.36 86.76 11/23/2015 14:03:33 -72.81, 154.37 86.76 0.85 34
8 11/23/2015 14:54:00 72.73, -38.22 93.18 11/23/2015 14:53:00 72.71, -38.17 93.14 3.05 60
9 11/25/2015 19:37:14 72.81,-109.15 93.68 11/25/2015 19:37:15 72.80,-109.07 93.67 2.86 1
10 11/25/2015 20:28:02 -72.19, 59.39 86.87 11/25/2015 20:26:53 -72.26, 57.57 86.90 62.51 69
11 11/28/2015 00:20:28 72.89, 179.91 94.16 11/28/2015 00:21:30 72.88,-179.98 94.16 3.79 62
12 11/28/2015 01:11:27 -72.79, -12.62 85.93 11/28/2015 01:11:00 -72.77, -12.56 85.95 3.27 27
